Skip Page Navigation
NASA JPL Caltech
NASA Logo - Jet Propulsion Laboratory + View the NASA Portal
+ Center for Near-Earth Object Studies
JPL Home Earth Solar System Stars & Galaxies Technology
JPL Solar System Dynamics
BODIES ORBITS EPHEMERIDES TOOLS PHYSICAL DATA DISCOVERY FAQ SITE MAP
IMPORTANT: The SSD Announcement email list is now available. Major changes are coming in the near future, including possible hostname and/or URL changes. To be notified of such changes, subscribe to this email list.

Please visit this page for more details.


JPL Small-Body Database Browser
Search: [ help ]  
95196 (2002 BS16)
Classification: Main-belt Asteroid          SPK-ID: 2095196
Ephemeris | Orbit Diagram | Orbital Elements | Mission Design | Physical Parameters | Discovery Circumstances | Close-Approach Data ]

[ show orbit diagram ]
Orbital Elements at Epoch 2459000.5 (2020-May-31.0) TDB
Reference: JPL 24 (heliocentric ecliptic J2000)
 Element Value Uncertainty (1-sigma)   Units 
e .1598050256661807 4.2245e-08  
a 2.996119054667492 2.1002e-08 au
q 2.51732417223742 1.1885e-07 au
i 2.088312013003764 4.1587e-06 deg
node 217.8861855250545 0.00012576 deg
peri 36.22266173244154 0.0001266 deg
M 103.4793650251801 1.4659e-05 deg
tp 2458456.012039624401
(2018-Dec-03.51203962)
7.6523e-05 TDB
period 1894.248826203353
5.19
1.9918e-05
5.453e-08
d
yr
n .1900489497578567 1.9983e-09 deg/d
Q 3.474913937097564 2.4359e-08 au
  Orbit Determination Parameters
   # obs. used (total)      868  
   data-arc span      9630 days (26.37 yr)  
   first obs. used      1993-07-25  
   last obs. used      2019-12-06  
   planetary ephem.      DE431  
   SB-pert. ephem.      SB431-N16  
   condition code      0  
   norm. resid. RMS      .55063  
   source      ORB  
   producer      Otto Matic  
   solution date      2019-Dec-14 08:23:49  

Additional Information
 Earth MOID = 1.50309 au 
 Jupiter MOID = 1.57315 au 
 T_jup = 3.234 
[ show covariance matrix ]

Ephemeris | Orbit Diagram | Orbital Elements | Mission Design | Physical Parameters | Discovery Circumstances | Close-Approach Data ]

Physical Parameter Table
Parameter Symbol Value Units Sigma Reference Notes
absolute magnitude H 14.7   n/a MPO395846  

95196 (2002 BS16)          Discovered 2002-Jan-19 by LINEAR at Socorro
Reference: 20041028/Numbers.arcLast Updated: 2004-10-29

[ show close-approach data ]
Alternate Designations
 2002 BS16 = 1998 MY42 
Ephemeris | Orbit Diagram | Orbital Elements | Mission Design | Physical Parameters | Discovery Circumstances | Close-Approach Data ]
ABOUT SSD CREDITS/AWARDS PRIVACY/COPYRIGHT GLOSSARY LINKS
FirstGov 2020-Apr-10 10:35 UT
(server date/time)  
NASA Home Page
Site Manager:   Ryan S. Park
Webmaster  Alan B. Chamberlin